Starlink 32566

operational
NORAD ID: 61958 Int'l Des: 2024-209 Owner: SPXS Country: US Constellation: starlink
LEOCIRCULAR

Über Starlink 32566

Beschreibung wird geladen...

Live-Position

3D-Globus wird geladen...

Nächste Überflüge

Höhenverlauf

Altitude vs Time

uPlot chart will show altitude changes over time

Zweizeiliger Elementsatz

1 61958U 24209V 25304.65527766 .00034807 00000-0 11832-2 0 9993
2 61958 53.1596 21.5779 0001125 97.2067 262.9062 15.30162670 55166
Epoch: 31. Okt. 2025 • Age: 19 hours

Aktueller Status

Höhe 481.0 km
Geschwindigkeit 7.63 km/s
Subsatellitenpunkt 53.30°N, 98.33°W
Startdatum 14. Nov. 2024
Alter 0.9 years
Typ internet

Technische Details

Klassifizierung Payload
Masse 730.00 kg
Trockenmasse 700.00 kg
Gesamtmasse 730.00 kg
Länge 0.30 m
Durchmesser 4.10 m
Spannweite 29.00 m
Form Box + pan
Hersteller SPXS
Bus-Typ Starlink V2M
Phasenstatus In Orbit
Besitzer/Staat SPXS/US

Große Konstellationen

Loading constellations...